User: anonymous   Login
Location: *
(43.9900°N, 3.4811°E)
Time: 12:51:23
(UTC+00:00)
Language:

Cosmos 2278 - Orbit

View from above orbital plane
View from above orbital plane
View from above satellite
View from above satellite

Ground track
Ground track

The orbit data is extracted from the following two-line orbital elements,

1 23087U 94023A   19291.77934314  .00000249  00000-0  15660-3 0  9994
2 23087  71.0553  14.8840 0009213 339.8201  20.2555 14.13789611315143
Epoch (UTC): 18 October 2019 18:42:15
Eccentricity: 0.0009213
inclination: 71.0553°
perigee height: 840 km
apogee height: 853 km
right ascension of ascending node: 14.8840°
argument of perigee: 339.8201°
revolutions per day: 14.13789611
mean anomaly at epoch: 20.2555°
orbit number at epoch: 31514

The dashed part of the orbit path shows where the satellite is in the earth's shadow,  

DLR